Flag for Brazil Weather past 2 weeks in Florianópolis, Santa Catarina, Brazil

Now
66 °F

Passing clouds.


Feels Like: 66 °F
Forecast: 64 / 71 °F
Wind: 7 mph from South

Location: Florianopolis Aeroporto


UV Index: 3 (Moderate)

Visibility: N/A


Pressure: 30.09 "Hg

Humidity: 73%

Dew point: 57 °F

Location of FlorianópolisLocation

Historic Weather in Florianópolis

°F

Florianópolis temperature yesterday

Maximum temperature yesterday: 75 °F (at 1:00 PM)
Minimum temperature yesterday: 66 °F (at 6:00 PM)
Average temperature yesterday: 70 °F

Past Weeks' High & Low Weather Summary

 TemperatureHumidityPressure
High81 °F (Apr 9, 3:00 PM)94% (Apr 12, 6:00 AM)30.18 "Hg (Apr 12, 6:00 AM)
Low59 °F (Apr 15, 3:00 AM)47% (Apr 14, 12:00 PM)29.74 "Hg (Apr 9, 3:00 PM)
Average71 °F76%29.99 "Hg
* Reported Apr 8 9:00 PM — Apr 23 9:00 PM, Florianópolis, Weather by CustomWeather, © 2014

Note: Actual official high and low records may vary slightly from our data, if they occured in-between our weather recording intervals... More about our weather records

Advertising

Historic Weather Conditions — Data for Previous 24 hours

 ConditionsComfort  
Time TempWeatherWind HumidityBarometerVisibility
9:00 PM
Apr 23
66 °FPassing clouds.9 mph73%30.09 "HgN/A
8:00 PM66 °FPartly cloudy.9 mph73%30.09 "HgN/A
7:00 PM66 °FPassing clouds.10 mph78%30.09 "HgN/A
6:00 PM66 °FPassing clouds.10 mph78%30.09 "HgN/A
5:00 PM68 °FPassing clouds.12 mph73%30.07 "HgN/A
4:00 PM68 °FPartly sunny.12 mph78%30.07 "HgN/A
3:00 PM70 °FPartly sunny.12 mph69%30.07 "HgN/A
2:00 PM70 °FBroken clouds.12 mph69%30.07 "HgN/A
1:00 PM72 °FPartly sunny.13 mph65%30.07 "HgN/A
12:00 PM72 °FPartly sunny.13 mph65%30.09 "HgN/A
11:00 AM70 °FPartly sunny.12 mph69%30.09 "HgN/A
10:00 AM70 °FPartly sunny.9 mph69%30.09 "HgN/A
9:00 AM68 °FPartly sunny.12 mph73%30.09 "HgN/A
8:00 AM66 °FPartly sunny.10 mph78%30.07 "HgN/A
7:00 AM66 °FPartly sunny.7 mph73%30.04 "HgN/A
6:00 AM64 °FBroken clouds.7 mph78%30.04 "HgN/A
5:00 AM64 °FPartly cloudy.8 mph83%30.04 "HgN/A
4:00 AM66 °FPassing clouds.10 mph78%30.04 "HgN/A
3:00 AM66 °FPassing clouds.10 mph83%30.04 "HgN/A
2:00 AM64 °FPassing clouds.10 mph88%30.04 "HgN/A
1:00 AM66 °FPassing clouds.10 mph78%30.04 "HgN/A
12:00 AM66 °FPartly cloudy.10 mph83%30.04 "HgN/A
11:00 PM
Apr 22
66 °FPartly cloudy.10 mph78%30.04 "HgN/A
10:00 PM66 °FPassing clouds.10 mph83%30.04 "HgN/A
Weather by CustomWeather, © 2014

See weather overview